• în România
  • Lista ţărilor
  • Pe 7 zile
  • Temperatura apei
  • Hartă satelitară
  • Meteo pe hartă
  • Widget-uri
  • user-avatar
    Intrare

    Meteo pe oră la Debrecen

    Astăzi, 20 Aprilie, Vineri

    Timp Temperatura Precipitaţii Vânt Presiune Umiditate
    00:00 +14°C° 0 mm 4 m/s 757 mmHg 71%
    01:00 +13°C° 0 mm 4 m/s 757 mmHg 72%
    02:00 +12°C° 0 mm 4 m/s 757 mmHg 72%
    03:00 +11°C° 0 mm 4 m/s 757 mmHg 72%
    04:00 +11°C° 0 mm 4 m/s 757 mmHg 73%
    05:00 +10°C° 0 mm 5 m/s 757 mmHg 71%
    06:00 +12°C° 0 mm 5 m/s 758 mmHg 69%
    07:00 +11°C° 0 mm 6 m/s 758 mmHg 67%
    08:00 +14°C° 0 mm 6 m/s 758 mmHg 62%
    09:00 +15°C° 0 mm 6 m/s 758 mmHg 57%
    10:00 +16°C° 0 mm 7 m/s 758 mmHg 52%
    11:00 +17°C° 0 mm 6 m/s 758 mmHg 50%
    12:00 +19°C° 0 mm 6 m/s 758 mmHg 48%
    13:00 +19°C° 0 mm 6 m/s 757 mmHg 46%
    14:00 +19°C° 0 mm 5 m/s 757 mmHg 46%
    15:00 +19°C° 0 mm 5 m/s 757 mmHg 47%
    16:00 +19°C° 0 mm 5 m/s 756 mmHg 47%
    17:00 +18°C° 0 mm 4 m/s 756 mmHg 52%
    18:00 +16°C° 0 mm 3 m/s 757 mmHg 57%
    19:00 +14°C° 0 mm 2 m/s 757 mmHg 62%
    20:00 +14°C° 0 mm 2 m/s 757 mmHg 63%
    21:00 +13°C° 0 mm 2 m/s 757 mmHg 64%
    22:00 +12°C° 0 mm 2 m/s 757 mmHg 65%
    23:00 +12°C° 0 mm 2 m/s 757 mmHg 66%

    Mâine, 21 Aprilie, Sâmbătă

    Timp Temperatura Precipitaţii Vânt Presiune Umiditate
    00:00 +10°C° 0 mm 2 m/s 757 mmHg 68%
    01:00 +10°C° 0 mm 2 m/s 757 mmHg 69%
    02:00 +10°C° 0 mm 1 m/s 757 mmHg 70%
    03:00 +10°C° 0 mm 1 m/s 757 mmHg 72%
    04:00 +9°C° 0 mm 1 m/s 756 mmHg 74%
    05:00 +11°C° 0 mm 1 m/s 756 mmHg 70%
    06:00 +12°C° 0 mm 1 m/s 756 mmHg 67%
    07:00 +13°C° 0 mm 0 m/s 756 mmHg 64%
    08:00 +15°C° 0 mm 1 m/s 756 mmHg 59%
    09:00 +18°C° 0 mm 1 m/s 756 mmHg 54%
    10:00 +19°C° 0 mm 2 m/s 756 mmHg 49%
    11:00 +20°C° 0 mm 2 m/s 756 mmHg 47%
    12:00 +21°C° 0 mm 2 m/s 755 mmHg 45%
    13:00 +22°C° 0 mm 3 m/s 755 mmHg 43%
    14:00 +22°C° 0 mm 3 m/s 754 mmHg 45%
    15:00 +22°C° 0 mm 3 m/s 754 mmHg 47%
    16:00 +22°C° 0 mm 3 m/s 753 mmHg 50%
    17:00 +20°C° 0 mm 3 m/s 753 mmHg 55%
    18:00 +18°C° 0 mm 3 m/s 753 mmHg 60%
    19:00 +16°C° 0 mm 2 m/s 753 mmHg 66%
    20:00 +16°C° 0 mm 2 m/s 753 mmHg 66%
    21:00 +14°C° 0 mm 3 m/s 753 mmHg 66%
    22:00 +14°C° 0 mm 3 m/s 753 mmHg 67%
    23:00 +13°C° 0 mm 3 m/s 753 mmHg 68%

    Poimâine, 22 Aprilie, Duminică

    Timp Temperatura Precipitaţii Vânt Presiune Umiditate
    00:00 +13°C° 0 mm 3 m/s 753 mmHg 69%
    01:00 +12°C° 0 mm 3 m/s 753 mmHg 70%
    02:00 +13°C° 0 mm 2 m/s 753 mmHg 72%
    03:00 +12°C° 0 mm 2 m/s 753 mmHg 74%
    04:00 +12°C° 0 mm 2 m/s 752 mmHg 76%
    05:00 +13°C° 0 mm 2 m/s 752 mmHg 74%
    06:00 +14°C° 0 mm 2 m/s 752 mmHg 72%
    07:00 +15°C° 0 mm 2 m/s 752 mmHg 71%
    08:00 +17°C° 0 mm 2 m/s 752 mmHg 66%
    09:00 +19°C° 0 mm 2 m/s 752 mmHg 62%
    10:00 +20°C° 0 mm 2 m/s 752 mmHg 58%
    11:00 +23°C° 0 mm 1 m/s 752 mmHg 55%
    12:00 +24°C° 0 mm 1 m/s 752 mmHg 53%
    13:00 +25°C° 0 mm 1 m/s 751 mmHg 50%
    14:00 +25°C° 0 mm 1 m/s 751 mmHg 51%
    15:00 +25°C° 0 mm 1 m/s 751 mmHg 51%
    16:00 +25°C° 0 mm 1 m/s 750 mmHg 52%
    17:00 +23°C° 0 mm 1 m/s 750 mmHg 57%
    18:00 +21°C° 0 mm 1 m/s 750 mmHg 63%
    19:00 +19°C° 0 mm 1 m/s 750 mmHg 69%
    20:00 +19°C° 0 mm 1 m/s 751 mmHg 71%
    21:00 +18°C° 0 mm 1 m/s 751 mmHg 73%
    22:00 +17°C° 0 mm 2 m/s 751 mmHg 75%
    23:00 +16°C° 0 mm 2 m/s 751 mmHg 76%

    23 Aprilie, Luni

    Timp Temperatura Precipitaţii Vânt Presiune Umiditate
    00:00 +16°C° 0 mm 2 m/s 751 mmHg 78%
    01:00 +15°C° 0 mm 2 m/s 751 mmHg 79%
    02:00 +15°C° 0 mm 2 m/s 750 mmHg 81%
    03:00 +14°C° 0 mm 2 m/s 750 mmHg 82%
    04:00 +14°C° 0 mm 2 m/s 750 mmHg 83%
    05:00 +15°C° 0 mm 2 m/s 750 mmHg 80%
    06:00 +16°C° 0 mm 2 m/s 750 mmHg 77%
    07:00 +17°C° 0 mm 2 m/s 750 mmHg 74%
    08:00 +19°C° 0 mm 2 m/s 750 mmHg 70%
    09:00 +20°C° 0 mm 2 m/s 750 mmHg 65%
    10:00 +23°C° 0 mm 2 m/s 750 mmHg 61%
    11:00 +24°C° 0,1 mm 2 m/s 749 mmHg 58%
    12:00 +25°C° 0,1 mm 3 m/s 749 mmHg 56%
    13:00 +26°C° 0,1 mm 3 m/s 749 mmHg 53%
    14:00 +26°C° 0,3 mm 3 m/s 748 mmHg 55%
    15:00 +26°C° 0,3 mm 3 m/s 748 mmHg 56%
    16:00 +26°C° 0,3 mm 3 m/s 748 mmHg 58%
    17:00 +24°C° 0,2 mm 3 m/s 748 mmHg 64%
    18:00 +22°C° 0,2 mm 3 m/s 747 mmHg 70%
    19:00 +20°C° 0,2 mm 3 m/s 747 mmHg 76%
    20:00 +19°C° 1 mm 3 m/s 747 mmHg 79%
    21:00 +18°C° 1 mm 3 m/s 747 mmHg 82%
    22:00 +18°C° 1 mm 3 m/s 747 mmHg 85%
    23:00 +17°C° 1,2 mm 3 m/s 747 mmHg 85%

    24 Aprilie, Marţi

    Timp Temperatura Precipitaţii Vânt Presiune Umiditate
    00:00 +17°C° 1,2 mm 4 m/s 748 mmHg 86%
    01:00 +16°C° 1,2 mm 5 m/s 748 mmHg 87%
    02:00 +17°C° 0,3 mm 4 m/s 748 mmHg 88%
    03:00 +16°C° 0,3 mm 3 m/s 748 mmHg 89%
    04:00 +16°C° 0,3 mm 2 m/s 749 mmHg 89%
    05:00 +16°C° 0 mm 3 m/s 749 mmHg 85%
    06:00 +16°C° 0 mm 3 m/s 749 mmHg 81%
    07:00 +17°C° 0 mm 4 m/s 750 mmHg 77%
    08:00 +17°C° 0 mm 3 m/s 750 mmHg 75%
    09:00 +16°C° 0 mm 3 m/s 751 mmHg 74%
    10:00 +16°C° 0 mm 3 m/s 751 mmHg 73%
    11:00 +17°C° 0 mm 2 m/s 751 mmHg 67%
    12:00 +18°C° 0 mm 2 m/s 751 mmHg 61%
    13:00 +20°C° 0 mm 2 m/s 751 mmHg 55%
    14:00 +20°C° 0 mm 2 m/s 751 mmHg 55%
    15:00 +20°C° 0 mm 3 m/s 751 mmHg 55%
    16:00 +20°C° 0 mm 3 m/s 751 mmHg 55%
    17:00 +19°C° 0 mm 3 m/s 751 mmHg 60%
    18:00 +17°C° 0 mm 3 m/s 751 mmHg 66%
    19:00 +16°C° 0 mm 3 m/s 751 mmHg 71%
    20:00 +14°C° 0 mm 3 m/s 751 mmHg 72%
    21:00 +14°C° 0 mm 3 m/s 752 mmHg 73%
    22:00 +13°C° 0 mm 3 m/s 752 mmHg 74%
    23:00 +13°C° 0 mm 2 m/s 752 mmHg 76%

    25 Aprilie, Miercuri

    Timp Temperatura Precipitaţii Vânt Presiune Umiditate
    00:00 +13°C° 0 mm 2 m/s 752 mmHg 77%
    01:00 +12°C° 0 mm 2 m/s 752 mmHg 78%
    02:00 +12°C° 0 mm 2 m/s 752 mmHg 79%
    03:00 +12°C° 0 mm 2 m/s 752 mmHg 80%
    04:00 +12°C° 0 mm 2 m/s 752 mmHg 81%
    05:00 +12°C° 0 mm 3 m/s 752 mmHg 78%
    06:00 +13°C° 0 mm 3 m/s 752 mmHg 76%
    07:00 +14°C° 0 mm 4 m/s 752 mmHg 73%
    08:00 +17°C° 0 mm 4 m/s 752 mmHg 69%
    09:00 +19°C° 0 mm 5 m/s 752 mmHg 65%
    10:00 +21°C° 0 mm 5 m/s 752 mmHg 61%
    11:00 +22°C° 0 mm 6 m/s 752 mmHg 59%
    12:00 +23°C° 0 mm 6 m/s 751 mmHg 57%
    13:00 +24°C° 0 mm 6 m/s 751 mmHg 55%
    14:00 +24°C° 0 mm 6 m/s 750 mmHg 56%
    15:00 +24°C° 0 mm 6 m/s 750 mmHg 58%
    16:00 +24°C° 0 mm 6 m/s 749 mmHg 59%
    17:00 +22°C° 0 mm 5 m/s 749 mmHg 64%
    18:00 +20°C° 0 mm 5 m/s 749 mmHg 69%
    19:00 +19°C° 0 mm 4 m/s 749 mmHg 74%
    20:00 +17°C° 0 mm 5 m/s 749 mmHg 72%
    21:00 +17°C° 0 mm 5 m/s 749 mmHg 70%
    22:00 +17°C° 0 mm 5 m/s 749 mmHg 68%
    23:00 +16°C° 0,2 mm 5 m/s 749 mmHg 71%
    Arată mai mult